Dewpoint
21 17 17 14 14 15 15 17 16 16 14 14 16 17 17 16 15 18 31 39 43 39 37 41 44 44 46 49 50 52 51 50 50 49 50 51 51 51 51 52 50 51 50 51 53 53 53 52 53 53 53 53 53 52 51 51 50 50 51 52 52 53 53 54 52 53 54 53 53 52 53 53 54 56 57 56 56 57 58 58 58 59 59 59 59 61
24 20 19 19 18 16 16 17 16 15 15 12 14 15 15 15 17 19 29 40 41 36 37 45 44 43 45 49 51 51 50 50 49 49 49 50 51 52 51 51 50 50 52 53 52 52 52 51 51 52 52 55 51 51 50 50 50 49 50 50 51 52 52 54 54 53 54 54 53 52 52 53 54 54 55 56 56 58 58 58 58 59 59 59 59 60
20 16 17 17 20 18 18 16 15 15 15 17 13 15 13 16 18 18 24 40 33 41 38 45 43 43 46 49 51 51 50 49 50 49 49 51 51 52 52 51 50 50 50 51 51 51 51 51 51 51 50 50 51 50 50 49 49 49 49 49 50 51 52 53 57 54 54 54 54 53 54 54 55 54 55 56 57 57 57 58 58 59 58 58 59 60
19 17 18 21 17 16 16 16 16 17 17 15 15 14 14 20 15 21 21 35 26 38 43 46 45 45 49 49 50 51 51 49 49 49 49 51 51 51 50 50 50 49 49 50 50 51 51 50 50 49 49 49 49 50 49 49 49 49 52 49 50 51 51 52 56 58 54 56 54 54 54 55 55 54 57 56 56 56 57 58 58 58 58 58 59 59
16 14 20 14 15 16 16 16 15 16 15 18 18 18 17 17 20 16 17 26 39 44 46 44 40 42 45 47 48 50 51 49 49 49 48 49 48 49 49 49 49 49 49 50 50 50 49 50 49 49 50 48 49 48 49 49 49 49 49 49 50 51 52 51 55 54 55 55 53 53 54 55 54 54 54 55 55 56 57 58 57 58 58 58 59 59
18 16 14 16 18 16 15 15 17 16 20 19 22 17 17 19 18 18 18 20 28 35 42 38 27 30 40 45 47 49 50 50 49 49 48 48 48 48 48 48 48 50 50 50 49 49 49 49 49 49 49 48 48 49 50 50 49 49 49 50 49 50 51 51 51 53 54 53 52 52 52 53 52 53 53 54 54 55 55 56 57 57 58 58 59 59
18 21 13 17 18 18 18 19 18 19 20 17 17 18 20 18 16 16 16 16 22 26 37 31 21 22 26 39 45 47 48 49 48 48 49 49 49 48 48 48 47 48 49 49 49 48 49 48 49 49 48 48 48 48 50 49 49 50 50 50 49 51 51 51 51 51 56 52 51 51 51 52 53 52 52 54 55 55 56 57 56 57 58 58 58 59
26 20 18 19 17 17 18 16 18 17 15 16 17 18 17 16 16 16 15 15 18 25 30 24 21 16 22 27 40 45 46 47 48 47 47 49 49 49 48 48 47 48 48 49 49 49 49 49 48 48 48 48 49 49 49 49 49 49 50 50 49 50 52 49 51 49 52 52 50 51 52 54 53 53 53 55 55 56 58 56 56 57 57 58 59 59
23 21 18 19 21 19 18 17 18 17 15 17 21 17 17 16 17 17 15 17 19 21 23 27 27 18 21 25 33 43 43 44 46 47 46 47 49 49 48 48 47 47 48 49 49 49 49 49 49 49 48 49 49 49 48 49 49 50 49 51 48 48 48 49 49 51 50 55 52 52 51 52 53 55 56 56 56 56 56 55 56 57 57 58 58 59
21 20 18 19 19 19 19 19 19 16 17 16 23 25 25 25 23 17 18 17 19 13 12 22 22 19 16 21 31 38 40 41 43 45 47 46 47 48 48 48 47 47 48 49 49 48 49 48 48 49 49 49 49 50 53 50 49 48 48 51 47 46 47 49 48 48 49 51 55 51 51 51 52 53 54 54 54 54 55 55 56 56 57 57 58 58
22 38 32 17 17 20 19 19 20 17 16 20 16 16 19 22 25 29 24 20 19 10 16 20 24 17 13 21 30 37 39 41 42 43 45 45 45 47 48 48 47 47 48 48 48 48 48 48 49 48 49 49 49 49 50 49 48 47 47 47 45 46 46 48 48 48 49 50 52 52 52 52 52 53 53 53 53 54 54 55 55 56 56 57 57 58
21 19 16 14 32 20 18 18 20 23 19 16 16 17 16 18 22 20 21 21 10 13 20 23 26 15 11 20 24 34 38 40 40 40 42 43 44 45 47 47 47 47 47 47 47 47 47 47 48 48 49 49 49 48 48 47 48 48 47 45 44 44 46 47 48 48 48 50 51 51 52 52 52 53 53 53 53 53 54 54 55 56 57 57 57 57
20 19 20 17 39 19 18 16 19 23 20 20 24 22 15 11 16 10 16 8 9 14 21 28 26 21 17 18 24 26 31 33 34 40 40 41 42 44 45 46 46 47 47 47 47 47 47 47 47 48 49 48 48 48 48 47 47 47 46 45 43 43 45 46 47 47 48 49 50 51 52 52 54 53 53 53 53 54 54 55 55 56 56 56 54 54
21 24 22 21 18 31 18 17 16 17 19 18 18 21 18 11 10 6 12 16 17 20 23 24 28 20 22 23 25 24 26 29 31 35 40 40 41 42 44 45 46 47 47 47 47 47 47 47 47 48 48 48 47 48 47 47 49 47 47 47 43 43 46 47 47 48 49 49 50 51 51 51 52 53 54 53 54 54 54 55 56 56 55 54 53 52
15 18 20 21 19 21 17 15 19 19 20 21 20 17 19 19 13 7 13 8 11 19 22 26 22 21 19 20 28 28 28 30 29 29 34 39 41 42 43 45 46 46 46 47 46 46 47 47 47 47 48 48 47 48 47 47 48 47 46 46 48 44 44 46 48 48 49 50 51 51 50 51 53 54 53 54 56 55 55 55 54 54 54 53 53 51
21 20 24 25 21 14 14 18 22 20 20 22 22 20 18 18 24 13 19 20 20 19 15 21 18 22 22 26 33 33 36 36 37 32 36 36 40 43 44 45 45 46 46 46 46 46 46 47 47 48 48 48 48 48 47 47 47 47 46 45 45 44 44 46 51 48 49 49 50 50 50 51 53 55 54 54 55 55 55 54 53 52 52 51 51 50
22 18 22 26 21 13 17 22 20 19 16 22 19 19 20 25 25 20 19 23 21 18 12 17 21 22 25 25 31 33 36 36 37 39 39 38 41 43 43 44 45 45 45 45 46 46 46 46 46 47 48 47 48 47 48 48 48 48 47 46 45 45 45 45 50 48 49 49 49 49 50 50 51 52 52 53 54 54 53 53 51 50 49 49 48 46
19 20 26 22 23 23 23 21 22 22 20 20 16 18 27 29 27 21 13 14 12 11 14 20 19 20 18 17 30 28 31 34 36 38 40 40 41 42 43 44 44 44 45 45 45 46 46 46 47 47 47 47 48 48 48 48 48 48 47 47 45 46 44 44 46 49 49 49 49 49 50 51 51 52 52 53 54 54 52 50 49 48 46 46 46 44
22 14 20 22 23 23 24 21 21 22 23 19 18 24 21 15 17 25 19 10 9 8 8 17 20 20 20 22 25 24 29 31 35 37 39 40 41 41 42 43 44 44 44 44 45 45 46 46 46 47 47 48 48 49 48 48 48 47 47 47 45 44 44 45 48 50 49 49 50 51 51 51 52 52 53 54 54 53 50 48 46 45 45 45 44 42
28 14 21 23 23 24 24 21 17 23 23 22 24 21 29 23 24 19 19 22 21 6 9 14 18 14 22 23 26 25 28 31 35 36 39 40 40 41 42 43 43 43 44 44 44 45 45 46 46 47 47 47 47 48 48 48 47 47 47 48 46 47 46 48 49 51 49 49 49 50 50 51 52 53 54 54 52 48 46 44 43 42 42 43 43 41
20 21 11 19 23 21 19 23 19 21 20 22 19 18 24 28 27 22 22 18 18 10 10 9 10 20 23 25 28 25 27 31 36 36 38 40 40 41 42 43 43 43 43 44 44 45 45 45 46 47 47 47 47 48 48 47 47 47 47 47 48 45 45 47 48 48 47 50 48 50 49 50 51 53 54 53 50 47 45 45 44 43 43 41 41 41
21 22 16 23 22 22 21 26 22 23 25 24 22 20 23 24 23 17 18 26 23 20 15 11 14 21 25 31 28 27 28 31 35 36 37 39 40 41 42 42 43 43 43 44 44 44 45 45 46 45 47 47 47 47 47 47 47 47 46 46 46 44 46 48 48 48 48 50 49 48 49 50 52 54 53 51 49 48 45 44 44 44 42 41 41 40
27 25 23 18 21 23 23 24 27 26 28 30 23 26 30 27 26 22 15 20 24 24 23 23 17 21 29 33 35 33 33 31 33 37 37 38 40 41 41 42 43 43 43 44 44 44 45 45 45 45 46 46 46 46 46 47 47 47 46 46 46 44 46 47 48 48 48 48 48 48 49 51 53 54 53 51 49 46 45 45 44 44 42 41 41 42
50 25 23 25 24 24 23 26 32 36 33 27 27 32 29 25 28 26 23 25 22 24 23 19 18 23 29 35 37 38 38 36 35 37 37 38 40 41 41 41 42 43 43 44 44 44 44 45 45 45 46 46 46 46 46 46 47 46 45 45 44 44 45 47 48 49 48 48 47 47 49 51 52 53 53 51 48 47 46 45 44 43 41 40 39 38
22 25 23 18 15 20 20 25 26 30 32 28 27 29 32 31 31 30 28 26 20 24 25 20 19 17 28 36 34 35 33 35 35 37 39 38 39 40 41 41 42 42 43 43 44 44 45 45 44 44 45 45 45 46 46 46 45 45 44 44 44 44 45 47 48 48 48 47 47 47 48 50 52 52 52 51 48 47 46 45 44 43 39 38 36 36
25 25 22 17 14 11 9 8 14 20 26 29 31 31 31 29 29 26 20 23 19 23 24 17 15 22 25 31 32 33 33 31 32 35 38 39 39 40 41 41 42 42 43 43 43 44 44 44 44 44 45 45 45 45 46 45 45 44 43 44 44 44 45 47 48 48 48 47 47 47 47 48 51 51 52 51 49 48 46 45 43 42 40 37 35 35
25 29 26 23 21 20 22 21 26 30 27 25 28 29 30 31 31 27 24 21 22 22 23 24 24 25 26 27 28 29 32 32 31 31 35 36 38 40 41 41 42 42 42 43 43 44 44 44 44 44 45 45 45 46 46 44 43 43 43 43 44 45 45 46 48 48 47 47 47 46 47 48 50 51 51 51 49 47 45 44 42 40 39 39 36 35
27 24 26 27 25 25 25 25 29 32 28 28 28 29 30 30 29 26 20 21 26 22 22 27 28 25 26 29 29 30 31 32 35 34 32 33 36 39 40 41 45 42 42 42 43 43 43 44 44 44 44 45 45 45 44 43 42 42 42 42 44 44 45 46 46 47 47 47 47 46 47 47 49 49 50 49 47 46 45 43 41 40 40 38 36 35
26 21 25 26 26 29 30 28 31 31 31 30 29 29 30 30 29 27 26 28 26 21 23 26 28 26 28 30 30 30 30 31 32 33 33 35 36 38 40 40 41 41 42 42 43 43 43 43 44 44 44 44 45 44 43 42 41 41 43 43 44 44 44 46 45 47 47 46 46 46 46 48 49 50 50 48 47 45 43 42 41 39 39 39 39 39
29 24 26 27 27 29 30 31 32 31 30 30 30 31 31 30 30 30 29 29 28 27 27 27 29 28 29 28 29 30 31 34 34 37 37 34 34 38 39 40 40 41 41 42 42 43 43 43 44 44 44 44 44 43 42 41 40 41 42 43 43 44 44 44 45 46 47 46 46 46 47 48 49 48 48 47 46 44 43 40 40 40 39 39 39 37
29 25 33 29 27 28 29 32 32 31 30 28 30 30 30 30 30 30 29 29 31 29 30 30 29 29 31 31 31 32 32 33 34 33 33 35 35 40 39 40 40 40 41 41 42 42 43 43 44 44 44 43 43 43 42 41 40 40 42 43 43 43 44 42 44 46 46 46 45 46 47 47 47 47 47 47 46 45 41 40 41 40 40 40 38 36
30 25 30 27 25 25 27 29 30 29 28 28 27 27 27 27 26 26 26 30 27 27 27 26 25 26 29 31 33 34 34 34 33 33 33 33 35 39 39 39 40 40 41 41 42 42 42 43 43 43 43 43 43 42 41 41 41 42 42 42 42 43 44 42 44 45 45 45 45 46 46 46 47 47 47 47 45 43 42 41 41 41 40 39 38 37
30 29 27 25 25 18 25 28 28 26 26 25 25 26 27 26 27 28 29 32 32 28 25 21 25 29 30 36 30 31 32 32 32 32 33 34 34 36 38 39 39 40 40 41 41 42 42 42 43 43 43 43 43 42 41 42 42 42 42 42 42 44 43 42 43 44 45 44 45 45 46 46 46 46 46 46 45 44 43 42 42 42 41 41 41 35
31 31 26 27 23 18 25 26 25 24 17 21 26 30 31 27 29 27 27 29 31 31 29 29 29 30 32 33 32 31 31 31 31 32 34 32 33 35 38 39 39 40 41 41 41 42 42 43 43 43 43 43 43 42 40 42 41 41 42 43 43 42 42 42 42 44 44 44 45 45 45 46 46 46 46 46 45 45 43 43 42 42 43 43 41 36
31 30 26 26 24 22 23 24 22 14 21 27 30 32 33 31 30 29 30 31 32 33 33 32 33 33 34 33 33 33 33 33 34 34 34 35 36 35 36 38 40 41 41 41 41 42 42 42 43 43 43 43 42 42 40 41 43 44 42 43 42 42 42 42 42 43 44 44 45 45 45 45 45 46 46 46 45 45 44 43 43 43 44 42 39 36
28 27 24 26 20 20 20 15 15 14 22 28 30 33 34 34 32 31 29 30 32 33 33 33 32 33 33 34 35 36 35 35 35 35 35 35 37 37 37 38 40 41 41 41 41 42 42 42 42 43 42 43 42 41 39 41 43 43 42 42 42 42 42 42 42 42 43 44 45 45 45 45 45 46 45 45 45 44 44 43 43 43 43 42 41 41
33 29 27 26 25 22 18 15 23 26 27 27 25 27 32 28 29 27 23 27 31 33 34 32 33 33 35 36 36 36 36 35 33 33 36 38 40 40 39 39 40 41 41 42 42 42 43 43 43 43 43 41 40 39 39 41 42 42 41 41 41 41 42 42 42 42 44 44 45 45 45 44 44 45 45 45 44 43 43 43 43 43 44 41 41 39
33 30 29 28 26 21 20 19 19 18 17 24 28 31 34 35 33 31 28 27 32 32 34 32 32 34 34 34 34 34 34 31 29 31 35 37 39 41 41 41 41 42 42 42 41 42 42 43 42 43 41 39 39 39 39 41 41 41 41 42 41 41 41 42 42 42 44 44 45 45 44 44 44 44 45 44 44 43 43 43 43 43 44 41 40 39
34 33 31 30 26 22 21 19 16 17 22 26 27 32 34 36 36 33 29 26 29 31 35 34 34 35 34 34 33 35 31 27 28 31 34 36 38 41 41 40 40 40 41 41 41 41 42 42 42 42 41 38 38 38 40 40 40 40 40 42 41 41 41 41 42 42 43 44 44 44 44 44 43 44 44 44 44 43 43 42 42 43 43 41 41 40
31 27 26 27 24 22 20 20 20 17 21 27 31 32 34 38 33 28 21 19 29 32 35 36 34 35 35 35 34 33 30 28 29 32 35 37 40 41 41 41 42 42 41 41 41 42 42 44 44 41 39 38 38 39 40 40 40 41 40 40 41 40 41 41 42 42 43 43 44 44 43 43 44 43 43 43 43 43 43 43 43 42 41 41 41 40
27 27 26 28 27 26 24 21 17 24 27 31 31 34 37 36 30 22 18 25 31 32 35 37 36 36 36 35 36 30 32 32 34 35 38 40 40 41 43 44 44 44 42 41 41 44 43 44 43 41 39 38 38 39 39 39 39 40 40 40 40 40 41 41 42 43 43 43 44 43 43 43 43 43 43 43 43 43 44 43 42 42 41 41 41 39
27 26 26 24 24 25 25 23 27 26 29 32 34 35 36 30 21 19 28 32 34 34 36 37 36 36 36 35 35 33 34 36 38 40 39 39 40 40 43 44 44 44 45 45 45 44 43 43 42 41 39 38 38 39 39 39 39 40 40 40 40 40 40 41 42 43 43 43 43 43 43 43 43 43 43 43 43 43 43 43 43 42 41 41 41 38
28 26 25 24 25 23 21 22 21 21 27 34 35 33 31 24 28 31 32 34 36 37 36 37 37 36 37 36 37 37 36 36 37 38 39 39 40 41 42 43 42 43 43 43 44 44 44 42 42 40 39 38 39 39 39 39 39 39 40 39 39 40 41 41 42 42 42 43 43 43 43 43 43 43 43 42 43 42 42 42 42 42 42 41 40 38
31 25 22 24 28 23 23 22 24 29 31 35 33 26 32 32 34 34 34 32 36 37 37 36 37 37 37 36 35 35 37 38 38 38 39 39 39 40 40 42 42 42 42 43 43 43 44 42 42 40 39 39 39 39 39 39 39 39 39 38 39 40 41 41 42 42 42 43 42 43 43 42 43 42 42 43 42 42 41 41 41 41 41 41 40 39
31 30 29 27 29 28 27 29 31 32 34 36 35 33 34 35 36 36 36 35 34 35 38 37 36 37 38 37 37 36 35 37 37 37 38 38 38 40 41 42 43 43 42 42 42 43 43 42 41 40 39 39 39 39 39 39 39 39 39 39 40 40 40 41 42 42 42 42 42 42 42 42 42 42 42 42 41 40 40 40 40 40 40 41 40 39
34 34 32 30 30 32 33 33 34 34 34 34 36 36 35 35 36 37 36 35 36 36 38 36 37 37 37 38 37 36 36 36 37 38 39 39 39 40 42 42 42 42 42 41 41 42 42 42 41 40 40 39 39 39 40 39 39 39 39 39 40 40 40 41 41 41 41 41 42 42 41 41 41 41 41 41 40 40 40 40 41 40 38 40 40 40
32 34 31 30 32 28 29 31 32 33 33 34 34 36 37 37 36 37 37 37 36 36 38 38 37 37 38 39 37 36 36 37 37 38 39 39 39 40 41 42 42 43 42 42 42 42 41 40 40 40 39 38 38 39 39 39 39 39 39 39 39 40 40 41 41 42 41 41 41 41 41 41 40 40 41 41 40 40 41 40 39 39 39 39 40 40
31 34 31 32 30 29 30 31 32 34 34 35 35 35 34 35 36 37 38 38 38 38 38 38 38 38 39 38 38 38 37 37 37 37 37 38 39 40 40 41 42 42 43 43 42 42 41 41 40 40 39 39 38 38 39 39 39 39 40 39 39 40 40 41 41 41 41 41 41 41 41 40 40 41 40 40 39 39 38 38 38 38 38 38 38 39
33 37 30 32 30 31 33 33 34 34 34 34 35 36 36 35 36 36 36 37 38 38 38 39 40 39 39 39 39 39 38 37 37 37 37 37 39 40 40 41 42 42 43 43 42 42 41 41 40 40 40 39 39 38 38 39 39 40 40 39 39 40 40 40 40 41 41 41 40 40 41 40 41 40 40 40 39 38 38 37 36 36 37 37 38 39
34 32 34 33 32 31 31 32 32 30 31 32 33 34 35 36 37 36 36 36 36 36 37 37 38 40 40 40 39 39 38 38 38 38 37 38 38 39 40 40 41 42 43 43 43 42 42 42 41 41 40 41 39 38 38 38 39 39 39 39 39 40 40 40 40 40 40 40 40 40 41 40 40 40 40 39 39 36 34 32 35 35 35 34 38 37
35 35 33 32 32 32 33 34 34 34 34 34 34 35 35 35 36 36 35 35 34 35 36 37 37 37 37 38 40 40 39 39 38 38 38 38 39 39 40 41 41 41 42 43 43 42 42 42 42 42 41 41 41 39 38 38 38 39 39 39 39 39 39 40 40 40 40 40 40 40 41 40 40 40 39 39 38 36 35 31 28 32 33 33 35 35